Location: Cahas Mountain Overlook
(37.0833°N, 80.1000°W)
Time: 20:11:46
(UTC-05:00)

Tiros 1 - Visible Passes

Search period start: 22 January 2022 00:00
Search period end: 01 February 2022 00:00
Orbit: 629 x 664 km, 48.4° (Epoch: 22 January)

Date Brightness Start Highest point End Pass type
(mag) Time Alt. Az. Time Alt. Az. Time Alt. Az.
22 Jan 10.2 04:11:39 12° ENE 04:11:39 12° ENE 04:12:03 10° ENE visible
22 Jan 7.4 05:49:19 37° NW 05:51:04 64° NNE 05:55:42 10° ESE visible
23 Jan 9.3 04:36:36 23° ENE 04:36:36 23° ENE 04:38:49 10° E visible
23 Jan 7.3 06:14:16 24° WNW 06:16:56 60° SW 06:21:31 10° SE visible
24 Jan 8.0 05:01:39 48° E 05:01:39 48° E 05:05:18 10° ESE visible
24 Jan 8.4 06:39:19 13° W 06:42:34 26° SW 06:46:25 10° S visible
25 Jan 7.2 05:26:46 65° SSW 05:26:46 65° SSW 05:31:12 10° SE visible
26 Jan 10.0 04:14:17 13° ESE 04:14:17 13° ESE 04:14:52 10° ESE visible
26 Jan 8.1 05:51:59 28° SW 05:52:13 28° SW 05:56:13 10° SSE visible
27 Jan 9.5 04:39:35 18° SE 04:39:35 18° SE 04:40:50 10° SE visible
27 Jan 9.2 06:17:16 11° WSW 06:17:40 12° SW 06:19:15 10° SSW visible
28 Jan 9.4 05:04:56 16° S 05:04:56 16° S 05:05:59 10° SSE visible
29 Jan 8.8 19:34:16 10° S 19:36:34 21° SSE 19:36:34 21° SSE visible
30 Jan 8.3 19:59:04 10° SW 20:01:58 35° SSW 20:01:58 35° SSW visible
31 Jan 8.6 18:44:05 10° S 18:47:45 22° SE 18:49:37 18° E visible
31 Jan 8.9 20:24:49 10° WSW 20:27:19 30° WSW 20:27:19 30° WSW visible
